Weather History for Thermopolis, WY

Change the Weather History Date:

Sunday, November 18, 2012

  Actual Average (KWRL) Record (KWRL)
Temperature  
Mean Temperature 37 °F 29 °F  
Max Temperature 42 °F 43 °F 64 °F (1995)
Min Temperature 32 °F 16 °F -4 °F (1961)
Degree Days  
Heating Degree Days 28 36  
Month to date heating degree days 555  
Since 1 July heating degree days 1417  
Cooling Degree Days 0 0  
Month to date cooling degree days 0  
Year to date cooling degree days 535  
Moisture  
Dew Point 29 °F    
Average Humidity 78    
Maximum Humidity 100    
Minimum Humidity 45    
Precipitation  
Precipitation 0.00 in 0.01 in 0.25 in (1985)
Month to date precipitation 0.23  
Year to date precipitation 7.22  
Sea Level Pressure  
Sea Level Pressure 30.02 in    
Wind  
Wind Speed 14 mph ()    
Max Wind Speed 28 mph    
Max Gust Speed 36 mph    
Visibility 10.0 miles    
Events      
T = Trace of Precipitation, MM = Missing Value Source: Averaged Metar Reports

Daily Weather History Graph

Daily Weather History Graph

Search for Another Location

Airport:

Trip Planner

Search our weather history database for the weather conditions in past years. The results will help you decide how hot, cold, wet, or windy it might be!

Date:

Astronomy

Nov. 18, 2012 Rise Set
Actual Time 7:11 AM MST 4:45 PM MST
Civil Twilight 6:39 AM MST 5:16 PM MST
Nautical Twilight 6:05 AM MST 5:51 PM MST
Astronomical Twilight 5:31 AM MST 6:24 PM MST
Moon 11:38 AM MST (11/18) 10:10 PM MST (11/18)
Length of Visible Light 10h 36m
Length of Day
9h 33m
Waxing Crescent, 31% of the Moon is Illuminated
Nov 18
Waxing Crescent
Nov 20
First Quarter
Nov 28
Full
Dec 6
Last Quarter
Dec 13
New

Hourly Weather History & Observations

Time (MST) Temp. Windchill Dew Point Humidity Pressure Visibility Wind Dir Wind Speed Gust Speed Precip Events Conditions
12:15 AM 32.0 °F 22.1 °F 32.0 °F 100% 30.01 in 10.0 mi SE 13.8 mph - N/A   Clear
12:35 AM 32.0 °F 20.5 °F 32.0 °F 100% 30.00 in 10.0 mi ESE 18.4 mph 25.3 mph N/A   Clear
12:55 AM 32.0 °F 21.2 °F 32.0 °F 100% 30.00 in 10.0 mi ESE 16.1 mph - N/A   Clear
1:15 AM 32.0 °F 21.2 °F 32.0 °F 100% 30.00 in 10.0 mi ESE 16.1 mph - N/A   Clear
1:35 AM 32.0 °F 20.8 °F 32.0 °F 100% 29.99 in 10.0 mi SE 17.3 mph - N/A   Clear
1:55 AM 32.0 °F 19.8 °F 32.0 °F 100% 29.98 in 10.0 mi ESE 20.7 mph - N/A   Clear
2:15 AM 32.0 °F 19.5 °F 32.0 °F 100% 29.97 in 10.0 mi ESE 21.9 mph - N/A   Clear
2:35 AM 32.0 °F 19.8 °F 32.0 °F 100% 29.96 in 10.0 mi ESE 20.7 mph - N/A   Clear
2:55 AM 32.0 °F 18.9 °F 32.0 °F 100% 29.96 in 10.0 mi SE 24.2 mph 27.6 mph N/A   Clear
3:15 AM 32.0 °F 19.5 °F 32.0 °F 100% 29.96 in 10.0 mi SE 21.9 mph - N/A   Clear
3:35 AM 32.0 °F 20.8 °F 32.0 °F 100% 29.96 in 10.0 mi SE 17.3 mph - N/A   Scattered Clouds
3:55 AM 32.0 °F 20.5 °F 32.0 °F 100% 29.95 in 10.0 mi SE 18.4 mph - N/A   Scattered Clouds
4:15 AM 32.0 °F 20.5 °F 32.0 °F 100% 29.94 in 10.0 mi SE 18.4 mph - N/A   Scattered Clouds
4:35 AM 32.0 °F 21.6 °F 32.0 °F 100% 29.94 in 10.0 mi ESE 15.0 mph - N/A   Scattered Clouds
4:55 AM 32.0 °F 21.2 °F 32.0 °F 100% 29.95 in 10.0 mi SE 16.1 mph 20.7 mph N/A   Scattered Clouds
5:15 AM 32.0 °F 22.1 °F 32.0 °F 100% 29.95 in 10.0 mi SE 13.8 mph - N/A   Mostly Cloudy
5:35 AM 32.0 °F 23.0 °F 32.0 °F 100% 29.96 in 10.0 mi SE 11.5 mph - N/A   Scattered Clouds
6:15 AM 32.0 °F 20.8 °F 32.0 °F 100% 29.94 in 7.0 mi SE 17.3 mph - N/A   Scattered Clouds
6:35 AM 32.0 °F 21.2 °F 32.0 °F 100% 29.94 in 10.0 mi SE 16.1 mph - N/A   Clear
6:55 AM 32.0 °F 22.1 °F 32.0 °F 100% 29.94 in 10.0 mi ESE 13.8 mph - N/A   Clear
7:15 AM 32.0 °F 22.1 °F 30.2 °F 93% 29.94 in 10.0 mi SE 13.8 mph - N/A   Clear
7:35 AM 32.0 °F 23.0 °F 30.2 °F 93% 29.95 in 10.0 mi ESE 11.5 mph - N/A   Clear
7:55 AM 32.0 °F 24.2 °F 32.0 °F 100% 29.96 in 10.0 mi ESE 9.2 mph - N/A   Clear
8:15 AM 33.8 °F 26.4 °F 32.0 °F 93% 29.96 in 10.0 mi SE 9.2 mph - N/A   Clear
8:35 AM 33.8 °F 25.8 °F 32.0 °F 93% 29.96 in 10.0 mi SE 10.4 mph - N/A   Clear
8:55 AM 33.8 °F 27.0 °F 32.0 °F 93% 29.97 in 10.0 mi SE 8.1 mph - N/A   Clear
9:15 AM 33.8 °F 27.7 °F 32.0 °F 93% 29.98 in 10.0 mi SE 6.9 mph - N/A   Clear
9:35 AM 33.8 °F 27.0 °F 32.0 °F 93% 29.97 in 10.0 mi SE 8.1 mph - N/A   Clear
10:15 AM 35.6 °F 28.0 °F 32.0 °F 87% 30.00 in 10.0 mi SE 10.4 mph - N/A   Clear
10:35 AM 35.6 °F 28.0 °F 32.0 °F 87% 30.01 in 10.0 mi SE 10.4 mph - N/A   Clear
10:55 AM 35.6 °F 28.0 °F 32.0 °F 87% 30.01 in 10.0 mi SE 10.4 mph - N/A   Clear
11:15 AM 35.6 °F 27.1 °F 32.0 °F 87% 30.01 in 10.0 mi ESE 12.7 mph - N/A   Clear
11:35 AM 37.4 °F 31.4 °F 32.0 °F 81% 30.01 in 10.0 mi SSE 8.1 mph - N/A   Clear
11:55 AM 37.4 °F 30.8 °F 32.0 °F 81% 30.01 in 10.0 mi SE 9.2 mph - N/A   Clear
12:15 PM 39.2 °F 33.6 °F 32.0 °F 75% 30.01 in 10.0 mi SSE 8.1 mph - N/A   Clear
12:35 PM 41.0 °F 36.4 °F 32.0 °F 70% 30.01 in 10.0 mi South 6.9 mph - N/A   Clear
12:55 PM 42.8 °F 36.6 °F 32.0 °F 66% 30.01 in 10.0 mi South 11.5 mph - N/A   Clear
1:15 PM 42.8 °F 38.6 °F 32.0 °F 66% 30.01 in 10.0 mi South 6.9 mph - N/A   Clear
1:35 PM 41.0 °F 36.4 °F 32.0 °F 70% 30.01 in 10.0 mi SSE 6.9 mph - N/A   Clear
1:55 PM 42.8 °F 37.0 °F 32.0 °F 66% 30.00 in 10.0 mi SSE 10.4 mph - N/A   Clear
2:15 PM 42.8 °F 34.8 °F 30.2 °F 61% 30.00 in 10.0 mi SSE 17.3 mph 21.9 mph N/A   Clear
2:35 PM 42.8 °F 34.5 °F 30.2 °F 61% 30.00 in 10.0 mi SSE 18.4 mph - N/A   Clear
2:55 PM 42.8 °F 35.4 °F 30.2 °F 61% 30.01 in 10.0 mi SSE 15.0 mph - N/A   Clear
3:15 PM 42.8 °F 36.2 °F 30.2 °F 61% 30.02 in 10.0 mi South 12.7 mph - N/A   Clear
3:35 PM 42.8 °F 36.6 °F 30.2 °F 61% 30.02 in 10.0 mi SSE 11.5 mph 18.4 mph N/A   Clear
3:55 PM 41.0 °F 34.7 °F 30.2 °F 65% 30.02 in 10.0 mi SSE 10.4 mph 19.6 mph N/A   Scattered Clouds
4:15 PM 41.0 °F 34.7 °F 30.2 °F 65% 30.04 in 10.0 mi SSE 10.4 mph 19.6 mph N/A   Mostly Cloudy
4:35 PM 41.0 °F 33.5 °F 30.2 °F 65% 30.04 in 10.0 mi South 13.8 mph 17.3 mph N/A   Scattered Clouds
4:55 PM 41.0 °F 32.8 °F 32.0 °F 70% 30.04 in 10.0 mi South 16.1 mph 23.0 mph N/A   Clear
5:15 PM 39.2 °F 30.8 °F 32.0 °F 75% 30.05 in 10.0 mi South 15.0 mph 18.4 mph N/A   Clear
5:35 PM 39.2 °F 30.8 °F 32.0 °F 75% 30.06 in 10.0 mi SSW 15.0 mph - N/A   Clear
5:55 PM 39.2 °F 31.2 °F 30.2 °F 70% 30.08 in 10.0 mi South 13.8 mph - N/A   Scattered Clouds
6:15 PM 37.4 °F 28.5 °F 30.2 °F 75% 30.08 in 10.0 mi SSW 15.0 mph - N/A   Scattered Clouds
6:35 PM 39.2 °F 30.2 °F 26.6 °F 61% 30.07 in 10.0 mi SSW 17.3 mph - N/A   Scattered Clouds
6:55 PM 41.0 °F 32.8 °F 24.8 °F 53% 30.08 in 10.0 mi SSW 16.1 mph - N/A   Clear
7:15 PM 39.2 °F 30.2 °F 23.0 °F 52% 30.09 in 10.0 mi SSW 17.3 mph - N/A   Clear
7:35 PM 37.4 °F 28.9 °F 23.0 °F 56% 30.10 in 10.0 mi SSW 13.8 mph - N/A   Clear
7:55 PM 37.4 °F 26.1 °F 21.2 °F 52% 30.09 in 10.0 mi SSW 24.2 mph 31.1 mph N/A   Clear
8:15 PM 37.4 °F 25.4 °F 21.2 °F 52% 30.09 in 10.0 mi SSW 27.6 mph 34.5 mph N/A   Clear
8:35 PM 37.4 °F 26.1 °F 21.2 °F 52% 30.10 in 10.0 mi SSW 24.2 mph 28.8 mph N/A   Clear
8:55 PM 39.2 °F 28.7 °F 19.4 °F 45% 30.10 in 10.0 mi SW 23.0 mph 35.7 mph N/A   Clear
9:15 PM 37.4 °F 28.2 °F 19.4 °F 48% 30.12 in 10.0 mi SW 16.1 mph 25.3 mph N/A   Clear
9:35 PM 37.4 °F 28.5 °F 19.4 °F 48% 30.12 in 10.0 mi SW 15.0 mph 21.9 mph N/A   Clear
9:55 PM 37.4 °F 27.8 °F 17.6 °F 45% 30.13 in 10.0 mi SW 17.3 mph 24.2 mph N/A   Clear
10:15 PM 37.4 °F 28.5 °F 19.4 °F 48% 30.13 in 10.0 mi SW 15.0 mph - N/A   Clear
10:35 PM 37.4 °F 28.9 °F 19.4 °F 48% 30.15 in 10.0 mi WSW 13.8 mph - N/A   Clear
10:55 PM 37.4 °F 29.8 °F 19.4 °F 48% 30.15 in 10.0 mi SW 11.5 mph - N/A   Clear
11:35 PM 39.2 °F 32.5 °F 19.4 °F 45% 30.16 in 10.0 mi SW 10.4 mph - N/A   Overcast
11:55 PM 33.8 °F 30.8 °F 23.0 °F 65% 30.17 in 10.0 mi SE 3.5 mph - N/A   Overcast